Regional Weather Roundup
Issued by NWS

Home | Current Version | Previous Version | Graphics & Text | Print | Product List | Glossary Off
Versions: 1 2 3 4 5 6 7 8 9 10 11 12 13 14 15 16 17 18 19 20 21 22 23 24 25 26 27 28 29 30 31 32 33 34 35 36 37 38 39 40 41 42 43 44 45 46 47 48 49 50

000
ASUS43 KMKX 271103
RWRWI

WISCONSIN REGIONAL WEATHER ROUNDUP
NATIONAL WEATHER SERVICE MILWAUKEE/SULLIVAN WI
600 AM CDT WED MAY 27 2015

NOTE: "FAIR" INDICATES FEW OR NO CLOUDS BELOW 12,000 FEET WITH NO
SIGNIFICANT WEATHER AND/OR OBSTRUCTIONS TO VISIBILITY.

WIZ001-002-006>008-014>016-023>028-271200-
NORTHWEST WISCONSIN

CITY           SKY/WX    TMP DP  RH WIND       PRES   REMARKS
SUPERIOR ARPT  CLOUDY    51  49  95 SW7       29.80R
ASHLAND        CLOUDY    53  52  96 SW8       29.81R
HAYWARD        CLOUDY    52  51  97 SW3       29.84R
SIREN          CLOUDY    52  52  99 CALM      29.85R
CUMBERLAND     CLOUDY    52  50  93 CALM      29.86R
RICE LAKE      CLOUDY    53  51  94 CALM      29.87R
CHETEK         CLOUDY    53  53 100 CALM      29.86R FOG
LADYSMITH      DRIZZLE   55  54  97 W7        29.85R
EAU CLAIRE     CLOUDY    56  54  93 W6        29.86R
MENOMONIE      MOCLDY    56  56  99 CALM      29.86R FOG
NEW RICHMOND   CLOUDY    54  54 100 SW3       29.87R FOG
OSCEOLA        CLOUDY    53  53 100 CALM      29.89R FOG
$$

WIZ003>005-009-010-017-018-271200-
NORTH CENTRAL WISCONSIN

CITY           SKY/WX    TMP DP  RH WIND       PRES   REMARKS
MANITOWISH WTR DRIZZLE   52  52 100 NW6       29.79R
ARBOR VITAE    LGT RAIN  55  53  94 NW5       29.79R
WOODRUFF       LGT RAIN  55  53  94 NW5       29.79R
RHINELANDER    LGT RAIN  53  52  96 W5        29.80R
EAGLE RIVER    LGT RAIN  52  52  99 N6        29.76R
LAND O LAKES   DRIZZLE   53  52  97 NW7       29.77R
PHILLIPS       LGT RAIN  52  52 100 W3        29.81R
TOMAHAWK       RAIN      52  50  95 W5        29.80R
MEDFORD        DRIZZLE   53  52  97 W7        29.82R
MERRILL        DRIZZLE   54  54 100 W6        29.81R
$$

WIZ029-030-035-036-043>047-271200-
CENTRAL WISCONSIN

CITY           SKY/WX    TMP DP  RH WIND       PRES   REMARKS
WAUSAU         CLOUDY    55  53  93 NW8       29.79R
MOSINEE        DRIZZLE   54  54 100 W12       29.82R
MARSHFIELD     CLOUDY    56  53  90 W13       29.83R
STEVENS POINT  CLOUDY    55  54  96 W8        29.81R
WAUPACA        CLOUDY    60  58  93 W9        29.79R
WAUTOMA        CLOUDY    61  61 100 W8        29.82R
WISC RAPIDS    CLOUDY    57  54  89 W8        29.84R
CAMP DOUGLAS   NOT AVBL
$$

WIZ011>013-019>022-031-037>040-048>050-271200-
NORTHEAST WISCONSIN

CITY           SKY/WX    TMP DP  RH WIND       PRES   REMARKS
ANTIGO         DRIZZLE   53  53  99 W9        29.78R
SHAWANO        CLOUDY    59  57  91 W8        29.76R
OCONTO         CLOUDY    60  60 100 W12       29.71R
STURGEON BAY   CLOUDY    61  55  82 W16       29.75R
GREEN BAY      CLOUDY    62  57  83 W14       29.76R
MANITOWOC      NOT AVBL
APPLETON       CLOUDY    61  55  82 W13G21    29.78R
CLINTONVILLE   CLOUDY    59  55  88 W9        29.76R
OSHKOSH        CLOUDY    62  56  80 W8        29.80R
$$

WIZ032>034-041-042-053>061-271200-
SOUTHWEST WISCONSIN

CITY           SKY/WX    TMP DP  RH WIND       PRES   REMARKS
LA CROSSE      CLOUDY    60  56  86 W3        29.87R
SPARTA         DRIZZLE   58  56  95 CALM      29.87R
VIROQUA        CLOUDY    57  57 100 W6        29.88R
BOSCOBEL       LGT RAIN  61  58  90 SW5       29.88R FOG
PRAIRIE DU CHI CLOUDY    60  57  87 W3        29.88R
PLATTEVILLE    CLOUDY    60  59  98 W8        29.88R
$$

WIZ056-057-062-063-064-067-068-271200-
SOUTH CENTRAL WISCONSIN

CITY           SKY/WX    TMP DP  RH WIND       PRES   REMARKS
REEDSBURG      CLOUDY    59  57  93 W5        29.85R
BARABOO/DELLS  CLOUDY    59  56  89 W3        29.84R
LONE ROCK      NOT AVBL
MINERAL POINT  CLOUDY    61  59  94 W10       29.88R
MADISON        CLOUDY    61  57  87 VRB5      29.86R
MIDDLETON      CLOUDY    61  59  93 W9        29.86R
WATERTOWN      CLOUDY   N/A N/A N/A SW5       29.85R
MONROE         CLOUDY    59  59 100 SW9       29.87R
JANESVILLE     CLOUDY    63  59  88 SW6       29.87R
$$

WIZ051-052-058>065-066-070>072-271200-
SOUTHEAST WISCONSIN

CITY           SKY/WX    TMP DP  RH WIND       PRES   REMARKS
MILWAUKEE      MOCLDY    63  59  87 W9        29.85R
WAUKESHA       MOCLDY    59  57  94 SW12      29.86R
MILWAUKEE/TIMM MOCLDY    61  55  82 SW10      29.85R
RACINE         CLOUDY    65  60  84 SW10      29.88R
BURLINGTON     MOCLDY    61  59  94 SW5       29.87R
KENOSHA        CLOUDY    64  61  90 W16       29.87R
FOND DU LAC    CLOUDY    61  56  83 SW8       29.82R
SHEBOYGAN      CLOUDY    62  56  80 SW13      29.81R
WEST BEND      CLOUDY    61  55  82 SW8G16    29.83R
JUNEAU         CLOUDY    59  57  94 SW9       29.85R
$$

LSZ147-162-271200-
LAKE SUPERIOR

STATION/POSITION TIME  TEMP    WIND        PRES    WAVE
                       AIR SEA DIR/SP/G            HT/PER
                 (UTC) (F)     (DEG/KT/KT) (MB)    (FT/S)
W MID LAKE BUOY  0950   41 37  230/ 10/ 10 1076.0S   0
DEVILS ISLAND    1000   50     230/ 16/ 17 1080.0R
PORT WING        1000   52     190/  6/  7   N/A
SAXON HARBOR     1000   52     190/  5/  8 1081.0R
$$

LMZ867-665-643>646-271200-
LAKE MICHIGAN

STATION/POSITION TIME  TEMP    WIND        PRES    WAVE
                       AIR SEA DIR/SP/G            HT/PER
                 (UTC) (F)     (DEG/KT/KT) (MB)    (FT/S)
CHAMBERS ISLAND  1000   56     270/  3/ 10 1044.0R
N MID LAKE BUOY  0950   44 37  200/ 19/ 21 1035.0F   5/ 6
NORTHPORT PIER   1020   59     270/ 10/ 16 1044.0R
SISTER BAY       1003   59     260/ 16/ 18   N/A
ALGOMA LAKESHORE 1038          250/ 12/ 21   N/A
KEWAUNEE LAKESHO 1000   63     250/ 16/ 25 1059.0R
SHEBOYGAN LAKESH 1000   61     230/ 14/ 17 1088.0R
PORT WASHINGTON  1040   62     260/  7/ 13   N/A
ATWATER BUOY     1000   59 45  220/  8/ 10   N/A
MILWAUKEE LAKESH 1000   63     210/  6/  7   N/A
S MID LAKE BUOY  0950   46 38  200/ 12/ 14   N/A     1/ 4
KENOSHA   LAKESH 1000   65     220/  8/ 12   N/A
$$

TC  - TEMPERATURE IN CELSIUS
VSB - VISIBILITY IN STATUTE MILES
WCI - WIND CHILL INDEX
HX  - HEAT INDEX




USA.gov is the U.S. government's official web portal to all federal, state and local government web resources and services.